When you browse on this site, cookies collect data to enhance your experience and personalize the content and advertising you see.
Visit our Privacy Policy to learn more. By continuing to use the site, you agree to this use of cookies and data.
  • In Slovakia
  • List of Countries
  • For 7 days
  • Water Temperature
  • Satellite Maps
  • Weather Map
  • Weather Widgets
  • user-avatar
    Login

    Hourly Weather Brisbane

    Today, 18 February, Monday

    Time Temperature Precipitation Wind Pressure Humidity
    00:00 +23°C° 0 mm 2 mps 758 mmHg 77%
    01:00 +23°C° 0 mm 2 mps 757 mmHg 79%
    02:00 +21°C° 0 mm 2 mps 757 mmHg 81%
    03:00 +21°C° 0 mm 2 mps 757 mmHg 82%
    04:00 +21°C° 0 mm 2 mps 757 mmHg 82%
    05:00 +23°C° 0 mm 2 mps 757 mmHg 79%
    06:00 +23°C° 0 mm 2 mps 757 mmHg 75%
    07:00 +24°C° 0 mm 2 mps 757 mmHg 72%
    08:00 +26°C° 0 mm 3 mps 757 mmHg 63%
    09:00 +29°C° 0 mm 3 mps 757 mmHg 54%
    10:00 +31°C° 0 mm 3 mps 757 mmHg 46%
    11:00 +33°C° 0 mm 3 mps 756 mmHg 44%
    12:00 +33°C° 0 mm 3 mps 756 mmHg 42%
    13:00 +34°C° 0 mm 4 mps 755 mmHg 40%
    14:00 +34°C° 0 mm 4 mps 755 mmHg 42%
    15:00 +33°C° 0 mm 4 mps 755 mmHg 45%
    16:00 +32°C° 0 mm 4 mps 755 mmHg 48%
    17:00 +30°C° 0 mm 4 mps 755 mmHg 54%
    18:00 +28°C° 0 mm 3 mps 755 mmHg 60%
    19:00 +26°C° 0 mm 3 mps 756 mmHg 66%
    20:00 +26°C° 0 mm 3 mps 756 mmHg 69%
    21:00 +25°C° 0 mm 2 mps 756 mmHg 73%
    22:00 +25°C° 0 mm 2 mps 757 mmHg 77%
    23:00 +24°C° 0 mm 2 mps 756 mmHg 80%

    Tomorrow, 19 February, Tuesday

    Time Temperature Precipitation Wind Pressure Humidity
    00:00 +23°C° 0 mm 1 mps 756 mmHg 82%
    01:00 +23°C° 0 mm 1 mps 756 mmHg 85%
    02:00 +23°C° 0 mm 1 mps 756 mmHg 86%
    03:00 +22°C° 0 mm 1 mps 755 mmHg 88%
    04:00 +22°C° 0 mm 1 mps 755 mmHg 90%
    05:00 +22°C° 0 mm 1 mps 755 mmHg 86%
    06:00 +23°C° 0 mm 1 mps 755 mmHg 83%
    07:00 +24°C° 0 mm 1 mps 755 mmHg 80%
    08:00 +27°C° 0 mm 1 mps 755 mmHg 67%
    09:00 +30°C° 0 mm 1 mps 754 mmHg 54%
    10:00 +33°C° 0 mm 1 mps 754 mmHg 41%
    11:00 +35°C° 0 mm 2 mps 754 mmHg 39%
    12:00 +36°C° 0 mm 3 mps 753 mmHg 37%
    13:00 +37°C° 0 mm 3 mps 753 mmHg 35%
    14:00 +36°C° 0 mm 3 mps 752 mmHg 39%
    15:00 +35°C° 0 mm 4 mps 751 mmHg 43%
    16:00 +34°C° 0 mm 4 mps 751 mmHg 47%
    17:00 +31°C° 0 mm 3 mps 751 mmHg 55%
    18:00 +29°C° 0 mm 3 mps 752 mmHg 62%
    19:00 +27°C° 0 mm 2 mps 752 mmHg 69%
    20:00 +26°C° 0 mm 2 mps 753 mmHg 73%
    21:00 +25°C° 0 mm 2 mps 754 mmHg 76%
    22:00 +25°C° 0 mm 2 mps 754 mmHg 80%
    23:00 +25°C° 0 mm 2 mps 754 mmHg 82%

    Day after tomorrow, 20 February, Wednesday

    Time Temperature Precipitation Wind Pressure Humidity
    00:00 +24°C° 0 mm 2 mps 754 mmHg 85%
    01:00 +24°C° 0 mm 2 mps 753 mmHg 87%
    02:00 +24°C° 0 mm 2 mps 753 mmHg 88%
    03:00 +23°C° 0 mm 2 mps 753 mmHg 90%
    04:00 +23°C° 0 mm 2 mps 753 mmHg 91%
    05:00 +24°C° 0 mm 3 mps 753 mmHg 86%
    06:00 +25°C° 0 mm 3 mps 754 mmHg 82%
    07:00 +25°C° 0 mm 4 mps 754 mmHg 78%
    08:00 +27°C° 0 mm 4 mps 754 mmHg 71%
    09:00 +29°C° 0 mm 4 mps 754 mmHg 64%
    10:00 +32°C° 0 mm 4 mps 754 mmHg 56%
    11:00 +33°C° 0 mm 4 mps 754 mmHg 51%
    12:00 +35°C° 0 mm 4 mps 753 mmHg 45%
    13:00 +37°C° 0 mm 5 mps 753 mmHg 39%
    14:00 +36°C° 0 mm 5 mps 752 mmHg 42%
    15:00 +35°C° 0 mm 5 mps 752 mmHg 44%
    16:00 +35°C° 0 mm 5 mps 752 mmHg 47%
    17:00 +33°C° 0 mm 5 mps 752 mmHg 56%
    18:00 +30°C° 0 mm 5 mps 753 mmHg 65%
    19:00 +28°C° 0 mm 4 mps 753 mmHg 73%
    20:00 +27°C° 0 mm 4 mps 753 mmHg 77%
    21:00 +27°C° 0 mm 4 mps 754 mmHg 81%
    22:00 +26°C° 0 mm 4 mps 754 mmHg 85%
    23:00 +26°C° 0 mm 4 mps 754 mmHg 85%

    21 February, Thursday

    Time Temperature Precipitation Wind Pressure Humidity
    00:00 +25°C° 0 mm 4 mps 753 mmHg 86%
    01:00 +25°C° 0 mm 3 mps 753 mmHg 87%
    02:00 +25°C° 0 mm 4 mps 752 mmHg 85%
    03:00 +26°C° 0 mm 4 mps 752 mmHg 83%
    04:00 +26°C° 0 mm 4 mps 752 mmHg 81%
    05:00 +26°C° 0 mm 4 mps 753 mmHg 79%
    06:00 +27°C° 0 mm 4 mps 753 mmHg 77%
    07:00 +27°C° 0 mm 5 mps 754 mmHg 75%
    08:00 +28°C° 0.1 mm 4 mps 754 mmHg 73%
    09:00 +28°C° 0.1 mm 4 mps 754 mmHg 70%
    10:00 +29°C° 0.1 mm 4 mps 754 mmHg 67%
    11:00 +32°C° 0 mm 5 mps 753 mmHg 61%
    12:00 +33°C° 0 mm 5 mps 752 mmHg 54%
    13:00 +35°C° 0 mm 5 mps 752 mmHg 48%
    14:00 +35°C° 0 mm 5 mps 751 mmHg 48%
    15:00 +35°C° 0 mm 6 mps 751 mmHg 48%
    16:00 +35°C° 0 mm 6 mps 751 mmHg 47%
    17:00 +34°C° 0 mm 6 mps 751 mmHg 52%
    18:00 +32°C° 0 mm 5 mps 752 mmHg 57%
    19:00 +30°C° 0 mm 5 mps 752 mmHg 62%
    20:00 +29°C° 0 mm 5 mps 753 mmHg 65%
    21:00 +28°C° 0 mm 5 mps 753 mmHg 68%
    22:00 +27°C° 0 mm 5 mps 754 mmHg 72%
    23:00 +27°C° 0 mm 5 mps 753 mmHg 72%

    22 February, Friday

    Time Temperature Precipitation Wind Pressure Humidity
    00:00 +27°C° 0 mm 5 mps 753 mmHg 72%
    01:00 +26°C° 0 mm 5 mps 753 mmHg 71%
    02:00 +26°C° 0 mm 5 mps 753 mmHg 71%
    03:00 +26°C° 0 mm 5 mps 753 mmHg 71%
    04:00 +26°C° 0 mm 5 mps 753 mmHg 71%
    05:00 +26°C° 0 mm 6 mps 754 mmHg 69%
    06:00 +27°C° 0 mm 7 mps 754 mmHg 66%
    07:00 +27°C° 0 mm 7 mps 755 mmHg 64%
    08:00 +28°C° 0 mm 7 mps 755 mmHg 56%
    09:00 +30°C° 0 mm 7 mps 755 mmHg 49%
    10:00 +32°C° 0 mm 6 mps 755 mmHg 42%
    11:00 +33°C° 0 mm 7 mps 755 mmHg 39%
    12:00 +34°C° 0 mm 7 mps 755 mmHg 37%
    13:00 +35°C° 0 mm 7 mps 755 mmHg 34%
    14:00 +34°C° 0 mm 7 mps 755 mmHg 37%
    15:00 +33°C° 0 mm 6 mps 755 mmHg 40%
    16:00 +32°C° 0 mm 6 mps 755 mmHg 43%
    17:00 +30°C° 0 mm 6 mps 755 mmHg 45%
    18:00 +29°C° 0 mm 6 mps 756 mmHg 48%
    19:00 +28°C° 0 mm 6 mps 757 mmHg 50%
    20:00 +27°C° 0 mm 6 mps 757 mmHg 54%
    21:00 +26°C° 0 mm 6 mps 757 mmHg 58%
    22:00 +24°C° 0 mm 6 mps 758 mmHg 62%
    23:00 +23°C° 0 mm 6 mps 758 mmHg 64%

    23 February, Saturday

    Time Temperature Precipitation Wind Pressure Humidity
    00:00 +23°C° 0 mm 5 mps 757 mmHg 66%
    01:00 +22°C° 0 mm 5 mps 757 mmHg 68%
    02:00 +22°C° 0 mm 5 mps 757 mmHg 69%
    03:00 +22°C° 0 mm 5 mps 757 mmHg 70%
    04:00 +22°C° 0 mm 5 mps 757 mmHg 71%
    05:00 +22°C° 0 mm 5 mps 758 mmHg 69%
    06:00 +23°C° 0 mm 5 mps 758 mmHg 67%
    07:00 +23°C° 0 mm 5 mps 759 mmHg 65%
    08:00 +26°C° 0 mm 5 mps 759 mmHg 58%
    09:00 +28°C° 0 mm 5 mps 759 mmHg 51%
    10:00 +30°C° 0 mm 5 mps 759 mmHg 44%
    11:00 +30°C° 0 mm 5 mps 759 mmHg 44%
    12:00 +30°C° 0 mm 5 mps 759 mmHg 44%
    13:00 +30°C° 0 mm 5 mps 758 mmHg 43%
    14:00 +29°C° 0 mm 5 mps 758 mmHg 44%
    15:00 +29°C° 0 mm 5 mps 759 mmHg 45%
    16:00 +28°C° 0 mm 5 mps 759 mmHg 46%
    17:00 +28°C° 0 mm 5 mps 759 mmHg 47%
    18:00 +27°C° 0 mm 5 mps 760 mmHg 49%
    19:00 +26°C° 0 mm 5 mps 761 mmHg 50%
    20:00 +25°C° 0 mm 5 mps 761 mmHg 54%
    21:00 +23°C° 0 mm 5 mps 761 mmHg 57%
    22:00 +22°C° 0 mm 5 mps 762 mmHg 61%
    23:00 +22°C° 0 mm 5 mps 761 mmHg 64%
    Show more